Location: Moscow
(55.7500°N, 37.5830°E)
Time: 21:41:59
(UTC+03:00)

N. Korean satellite - Pass Details

Date: 04 March 2021
Orbit: 452 x 499 km, 97.2° (Epoch: 20 April)

Event Time Altitude Azimuth Distance (km) Brightness Sun altitude
Rises 06:19:05 0° 13° (NNE) 2,520 10.4 -8.4°
Reaches altitude 10° 06:21:08 10° 12° (NNE) 1,646 9.4 -8.1°
Maximum altitude 06:24:40 78° 286° (WNW) 494 6.5 -7.6°
Drops below altitude 10° 06:28:14 10° 200° (SSW) 1,660 9.1 -7.1°
Sets 06:30:18 0° 199° (SSW) 2,543 10.0 -6.8°
